Meath Environmental Platform

Observations for Trim Market St

Time AQI Temp °C Hum % Pres Pa CO μg/m³ H₂S μg/m³ NO μg/m³ NO₂ μg/m³ O₃ μg/m³ SO₂ μg/m³ PM1 μg/m³ PM2.5 μg/m³ PM10 μg/m³
Monday 17 August 2026
12:48 2 25.1 54 55,534 0 0 1.61 11.39 58.57 0 0 1.79 1.96
12:47 2 25.1 54 55,483 0 0 1.43 11.12 53.04 0 0 1.78 1.96
12:46 2 25.1 54 55,474 0 0 1.47 10.85 54.48 0 0 1.78 1.96
12:45 2 25.2 54 55,466 0 0 1.62 10.72 56.76 0 0 1.78 1.96
12:44 2 25.2 54 55,479 0 0 1.71 9.87 53.66 0 0 2.29 2.47
12:42 2 25.2 54 55,501 0 0 2.21 11.8 46.89 0 0 1.78 1.95
12:39 2 25.2 54 55,563 0.3 0 2.17 12.1 49.77 0 0 1.77 1.95
12:38 2 25.2 54 55,613 0 0 1.96 12.04 47.49 0 0 2.79 3.2
12:37 2 25.1 54 55,670 0 0 2.06 11.45 46.06 0 0 1.76 1.77
12:27 2 24.7 56 56,826 0 0 2.07 11.61 60.51 0 0.71 2.7 3.27
12:26 2 24.6 56 56,885 0 0 2.26 11.93 56.75 0 0 1.69 1.85
12:25 2 24.5 56 56,900 0 0 2.5 11.21 53.47 0 0 1.69 1.85
12:24 2 24.5 56 56,932 0 0 3.27 12.48 53.36 0 0 1.69 1.84
12:23 2 24.5 56 56,925 0 0 3.26 12.69 51.17 0 0 1.69 1.84
12:22 2 24.5 56 56,902 0 0 3.25 13.14 44.94 0 0 1.7 1.84
12:21 2 24.5 56 56,878 0 0 3.23 12.43 44.17 0 0 2.21 2.55
12:18 2 24.5 56 56,741 0 0 1.69 8.03 54.63 0 0 1.71 1.82
12:16 2 24.6 55 56,581 0 0 1.34 8.76 50.51 0 0 1.71 1.82
12:15 2 24.7 55 56,441 0 0 1.48 6.56 47.04 0 0 1.71 1.82
12:11 2 24.9 55 56,135 0 0 1.12 9.91 27.39 0 0 1.73 1.8